Year,Month,Day,Hour,Minute,Value (Times are PST for windgust in km/hr)
2020,02,24,00,00,20.90
2020,02,24,00,01,24.20
2020,02,24,00,02,27.40
2020,02,24,00,03,27.40
2020,02,24,00,04,27.40
2020,02,24,00,05,32.20
2020,02,24,00,06,29.00
2020,02,24,00,07,32.20
2020,02,24,00,08,27.40
2020,02,24,00,09,19.30
2020,02,24,00,10,30.60
2020,02,24,00,11,27.40
2020,02,24,00,12,25.70
2020,02,24,00,13,40.20
2020,02,24,00,14,45.10
2020,02,24,00,15,30.60
2020,02,24,00,16,20.90
2020,02,24,00,17,20.90
2020,02,24,00,18,43.50
2020,02,24,00,19,35.40
2020,02,24,00,20,37.00
2020,02,24,00,21,20.90
2020,02,24,00,22,25.70
2020,02,24,00,23,20.90
2020,02,24,00,24,22.50
2020,02,24,00,25,22.50
2020,02,24,00,26,45.10
2020,02,24,00,27,24.20
2020,02,24,00,28,29.00
2020,02,24,00,29,27.40
2020,02,24,00,30,32.20
2020,02,24,00,31,27.40
2020,02,24,00,32,17.70
2020,02,24,00,33,37.00
2020,02,24,00,34,30.60
2020,02,24,00,35,32.20
2020,02,24,00,36,27.40
2020,02,24,00,37,27.40
2020,02,24,00,38,45.10
2020,02,24,00,39,38.60
2020,02,24,00,40,27.40
2020,02,24,00,41,30.60
2020,02,24,00,42,30.60
2020,02,24,00,43,33.80
2020,02,24,00,44,33.80
2020,02,24,00,45,32.20
2020,02,24,00,46,33.80
2020,02,24,00,47,37.00
2020,02,24,00,48,27.40
2020,02,24,00,49,30.60
2020,02,24,00,50,29.00
2020,02,24,00,51,27.40
2020,02,24,00,52,37.00
2020,02,24,00,53,32.20
2020,02,24,00,54,24.20
2020,02,24,00,55,32.20
2020,02,24,00,56,32.20
2020,02,24,00,57,17.70
2020,02,24,00,58,17.70
2020,02,24,00,59,29.00
2020,02,24,01,00,30.60
2020,02,24,01,01,19.30
2020,02,24,01,02,22.50
2020,02,24,01,03,19.30
2020,02,24,01,04,16.10
2020,02,24,01,05,27.40
2020,02,24,01,06,30.60
2020,02,24,01,07,25.70
2020,02,24,01,08,25.70
2020,02,24,01,09,29.00
2020,02,24,01,10,25.70
2020,02,24,01,11,17.70
2020,02,24,01,12,33.80
2020,02,24,01,13,20.90
2020,02,24,01,14,32.20
2020,02,24,01,15,25.70
2020,02,24,01,16,29.00
2020,02,24,01,17,35.40
2020,02,24,01,18,30.60
2020,02,24,01,19,35.40
2020,02,24,01,20,41.80
2020,02,24,01,21,29.00
2020,02,24,01,22,25.70
2020,02,24,01,23,25.70
2020,02,24,01,24,17.70
2020,02,24,01,25,20.90
2020,02,24,01,26,32.20
2020,02,24,01,27,29.00
2020,02,24,01,28,30.60
2020,02,24,01,29,27.40
2020,02,24,01,30,25.70
2020,02,24,01,31,24.20
2020,02,24,01,32,9.60
2020,02,24,01,33,11.30
2020,02,24,01,34,25.70
2020,02,24,01,35,16.10
2020,02,24,01,36,20.90
2020,02,24,01,37,35.40
2020,02,24,01,38,33.80
2020,02,24,01,39,30.60
2020,02,24,01,40,17.70
2020,02,24,01,41,24.20
2020,02,24,01,42,16.10
2020,02,24,01,43,32.20
2020,02,24,01,44,20.90
2020,02,24,01,45,24.20
2020,02,24,01,46,25.70
2020,02,24,01,47,24.20
2020,02,24,01,48,41.80
2020,02,24,01,49,20.90
2020,02,24,01,50,16.10
2020,02,24,01,51,19.30
2020,02,24,01,52,25.70
2020,02,24,01,53,19.30
2020,02,24,01,54,19.30
2020,02,24,01,55,20.90
2020,02,24,01,56,19.30
2020,02,24,01,57,19.30
2020,02,24,01,58,14.50
2020,02,24,01,59,17.70
2020,02,24,02,00,20.90
2020,02,24,02,01,25.70
2020,02,24,02,02,22.50
2020,02,24,02,03,25.70
2020,02,24,02,04,27.40
2020,02,24,02,05,16.10
2020,02,24,02,06,14.50
2020,02,24,02,07,22.50
2020,02,24,02,08,25.70
2020,02,24,02,09,25.70
2020,02,24,02,10,22.50
2020,02,24,02,11,24.20
2020,02,24,02,12,22.50
2020,02,24,02,13,29.00
2020,02,24,02,14,24.20
2020,02,24,02,15,25.70
2020,02,24,02,16,27.40
2020,02,24,02,17,20.90
2020,02,24,02,18,25.70
2020,02,24,02,19,24.20
2020,02,24,02,20,20.90
2020,02,24,02,21,20.90
2020,02,24,02,22,24.20
2020,02,24,02,23,22.50
2020,02,24,02,24,27.40
2020,02,24,02,25,24.20
2020,02,24,02,26,19.30
2020,02,24,02,27,9.60
2020,02,24,02,28,20.90
2020,02,24,02,29,24.20
2020,02,24,02,30,19.30
2020,02,24,02,31,22.50
2020,02,24,02,32,17.70
2020,02,24,02,33,16.10
2020,02,24,02,34,17.70
2020,02,24,02,35,32.20
2020,02,24,02,36,24.20
2020,02,24,02,37,20.90
2020,02,24,02,38,19.30
2020,02,24,02,39,17.70
2020,02,24,02,40,20.90
2020,02,24,02,41,33.80
2020,02,24,02,42,37.00
2020,02,24,02,43,20.90
2020,02,24,02,44,32.20
2020,02,24,02,45,32.20
2020,02,24,02,46,22.50
2020,02,24,02,47,29.00
2020,02,24,02,48,32.20
2020,02,24,02,49,35.40
2020,02,24,02,50,30.60
2020,02,24,02,51,30.60
2020,02,24,02,52,20.90
2020,02,24,02,53,22.50
2020,02,24,02,54,20.90
2020,02,24,02,55,16.10
2020,02,24,02,56,20.90
2020,02,24,02,57,20.90
2020,02,24,02,58,22.50
2020,02,24,02,59,22.50
2020,02,24,03,00,17.70
2020,02,24,03,01,9.60
2020,02,24,03,02,22.50
2020,02,24,03,03,27.40
2020,02,24,03,04,20.90
2020,02,24,03,05,17.70
2020,02,24,03,06,19.30
2020,02,24,03,07,14.50
2020,02,24,03,08,11.30
2020,02,24,03,09,20.90
2020,02,24,03,10,14.50
2020,02,24,03,11,22.50
2020,02,24,03,12,16.10
2020,02,24,03,13,17.70
2020,02,24,03,14,14.50
2020,02,24,03,15,19.30
2020,02,24,03,16,14.50
2020,02,24,03,17,17.70
2020,02,24,03,18,16.10
2020,02,24,03,19,11.30
2020,02,24,03,20,14.50
2020,02,24,03,21,24.20
2020,02,24,03,22,22.50
2020,02,24,03,23,20.90
2020,02,24,03,24,16.10
2020,02,24,03,25,16.10
2020,02,24,03,26,19.30
2020,02,24,03,27,11.30
2020,02,24,03,28,20.90
2020,02,24,03,29,16.10
2020,02,24,03,30,9.60
2020,02,24,03,31,12.90
2020,02,24,03,32,19.30
2020,02,24,03,33,20.90
2020,02,24,03,34,22.50
2020,02,24,03,35,19.30
2020,02,24,03,36,25.70
2020,02,24,03,37,24.20
2020,02,24,03,38,17.70
2020,02,24,03,39,20.90
2020,02,24,03,40,20.90
2020,02,24,03,41,27.40
2020,02,24,03,42,17.70
2020,02,24,03,43,22.50
2020,02,24,03,44,24.20
2020,02,24,03,45,20.90
2020,02,24,03,46,30.60
2020,02,24,03,47,17.70
2020,02,24,03,48,16.10
2020,02,24,03,49,20.90
2020,02,24,03,50,22.50
2020,02,24,03,51,16.10
2020,02,24,03,52,24.20
2020,02,24,03,53,25.70
2020,02,24,03,54,19.30
2020,02,24,03,55,24.20
2020,02,24,03,56,29.00
2020,02,24,03,57,16.10
2020,02,24,03,58,17.70
2020,02,24,03,59,17.70
2020,02,24,04,00,16.10
2020,02,24,04,01,11.30
2020,02,24,04,02,22.50
2020,02,24,04,03,17.70
2020,02,24,04,04,19.30
2020,02,24,04,05,14.50
2020,02,24,04,06,14.50
2020,02,24,04,07,19.30
2020,02,24,04,08,9.60
2020,02,24,04,09,11.30
2020,02,24,04,10,17.70
2020,02,24,04,11,17.70
2020,02,24,04,12,16.10
2020,02,24,04,13,19.30
2020,02,24,04,14,11.30
2020,02,24,04,15,14.50
2020,02,24,04,16,19.30
2020,02,24,04,17,14.50
2020,02,24,04,18,17.70
2020,02,24,04,19,20.90
2020,02,24,04,20,17.70
2020,02,24,04,21,11.30
2020,02,24,04,22,12.90
2020,02,24,04,23,16.10
2020,02,24,04,24,22.50
2020,02,24,04,25,22.50
2020,02,24,04,26,16.10
2020,02,24,04,27,11.30
2020,02,24,04,28,14.50
2020,02,24,04,29,11.30
2020,02,24,04,30,8.10
2020,02,24,04,31,9.60
2020,02,24,04,32,14.50
2020,02,24,04,33,16.10
2020,02,24,04,34,17.70
2020,02,24,04,35,16.10
2020,02,24,04,36,16.10
2020,02,24,04,37,25.70
2020,02,24,04,38,17.70
2020,02,24,04,39,17.70
2020,02,24,04,40,14.50
2020,02,24,04,41,14.50
2020,02,24,04,42,19.30
2020,02,24,04,43,25.70
2020,02,24,04,44,25.70
2020,02,24,04,45,30.60
2020,02,24,04,46,32.20
2020,02,24,04,47,12.90
2020,02,24,04,48,30.60
2020,02,24,04,49,17.70
2020,02,24,04,50,19.30
2020,02,24,04,51,16.10
2020,02,24,04,52,22.50
2020,02,24,04,53,22.50
2020,02,24,04,54,25.70
2020,02,24,04,55,27.40
2020,02,24,04,56,20.90
2020,02,24,04,57,19.30
2020,02,24,04,58,19.30
2020,02,24,04,59,20.90
2020,02,24,05,00,19.30
2020,02,24,05,01,16.10
2020,02,24,05,02,17.70
2020,02,24,05,03,19.30
2020,02,24,05,04,27.40
2020,02,24,05,05,22.50
2020,02,24,05,06,19.30
2020,02,24,05,07,22.50
2020,02,24,05,08,17.70
2020,02,24,05,09,9.60
2020,02,24,05,10,11.30
2020,02,24,05,11,16.10
2020,02,24,05,12,14.50
2020,02,24,05,13,16.10
2020,02,24,05,14,16.10
2020,02,24,05,15,14.50
2020,02,24,05,16,11.30
2020,02,24,05,17,20.90
2020,02,24,05,18,20.90
2020,02,24,05,19,17.70
2020,02,24,05,20,8.10
2020,02,24,05,21,17.70
2020,02,24,05,22,17.70
2020,02,24,05,23,14.50
2020,02,24,05,24,11.30
2020,02,24,05,25,8.10
2020,02,24,05,26,8.10
2020,02,24,05,27,9.60
2020,02,24,05,28,6.40
2020,02,24,05,29,6.40
2020,02,24,05,30,6.40
2020,02,24,05,31,9.60
2020,02,24,05,32,16.10
2020,02,24,05,33,9.60
2020,02,24,05,34,11.30
2020,02,24,05,35,8.10
2020,02,24,05,36,9.60
2020,02,24,05,37,8.10
2020,02,24,05,38,11.30
2020,02,24,05,39,6.40
2020,02,24,05,40,9.60
2020,02,24,05,41,9.60
2020,02,24,05,42,9.60
2020,02,24,05,43,8.10
2020,02,24,05,44,6.40
2020,02,24,05,45,8.10
2020,02,24,05,46,6.40
2020,02,24,05,47,3.20
2020,02,24,05,48,8.10
2020,02,24,05,49,6.40
2020,02,24,05,50,8.10
2020,02,24,05,51,14.50
2020,02,24,05,52,19.30
2020,02,24,05,53,24.20
2020,02,24,05,54,27.40
2020,02,24,05,55,22.50
2020,02,24,05,56,22.50
2020,02,24,05,57,17.70
2020,02,24,05,58,24.20
2020,02,24,05,59,17.70
2020,02,24,06,00,19.30
2020,02,24,06,01,17.70
2020,02,24,06,02,20.90
2020,02,24,06,03,17.70
2020,02,24,06,04,17.70
2020,02,24,06,05,16.10
2020,02,24,06,06,11.30
2020,02,24,06,07,11.30
2020,02,24,06,08,9.60
2020,02,24,06,09,17.70
2020,02,24,06,10,11.30
2020,02,24,06,11,9.60
2020,02,24,06,12,14.50
2020,02,24,06,13,24.20
2020,02,24,06,14,11.30
2020,02,24,06,15,16.10
2020,02,24,06,16,9.60
2020,02,24,06,17,14.50
2020,02,24,06,18,8.10
2020,02,24,06,19,22.50
2020,02,24,06,20,16.10
2020,02,24,06,21,9.60
2020,02,24,06,22,20.90
2020,02,24,06,23,14.50
2020,02,24,06,24,16.10
2020,02,24,06,25,24.20
2020,02,24,06,26,22.50
2020,02,24,06,27,22.50
2020,02,24,06,28,20.90
2020,02,24,06,29,17.70
2020,02,24,06,30,17.70
2020,02,24,06,31,16.10
2020,02,24,06,32,6.40
2020,02,24,06,33,8.10
2020,02,24,06,34,16.10
2020,02,24,06,35,14.50
2020,02,24,06,36,11.30
2020,02,24,06,37,9.60
2020,02,24,06,38,8.10
2020,02,24,06,39,9.60
2020,02,24,06,40,14.50
2020,02,24,06,41,11.30
2020,02,24,06,42,14.50
2020,02,24,06,43,14.50
2020,02,24,06,44,9.60
2020,02,24,06,45,6.40
2020,02,24,06,46,9.60
2020,02,24,06,47,9.60
2020,02,24,06,48,8.10
2020,02,24,06,49,6.40
2020,02,24,06,50,3.20
2020,02,24,06,51,8.10
2020,02,24,06,52,6.40
2020,02,24,06,53,4.80
2020,02,24,06,54,3.20
2020,02,24,06,55,4.80
2020,02,24,06,56,9.60
2020,02,24,06,57,8.10
2020,02,24,06,58,8.10
2020,02,24,06,59,3.20
2020,02,24,07,00,4.80
2020,02,24,07,01,6.40
2020,02,24,07,02,9.60
2020,02,24,07,03,3.20
2020,02,24,07,04,4.80
2020,02,24,07,05,3.20
2020,02,24,07,06,6.40
2020,02,24,07,07,4.80
2020,02,24,07,08,6.40
2020,02,24,07,09,4.80
2020,02,24,07,10,6.40
2020,02,24,07,11,4.80
2020,02,24,07,12,14.50
2020,02,24,07,13,8.10
2020,02,24,07,14,4.80
2020,02,24,07,15,6.40
2020,02,24,07,16,4.80
2020,02,24,07,17,9.60
2020,02,24,07,18,8.10
2020,02,24,07,19,11.30
2020,02,24,07,20,11.30
2020,02,24,07,21,6.40
2020,02,24,07,22,9.60
2020,02,24,07,23,8.10
2020,02,24,07,24,11.30
2020,02,24,07,25,17.70
2020,02,24,07,26,9.60
2020,02,24,07,27,11.30
2020,02,24,07,28,11.30
2020,02,24,07,29,8.10
2020,02,24,07,30,8.10
2020,02,24,07,31,11.30
2020,02,24,07,32,8.10
2020,02,24,07,33,11.30
2020,02,24,07,34,8.10
2020,02,24,07,35,9.60
2020,02,24,07,36,4.80
2020,02,24,07,37,6.40
2020,02,24,07,38,9.60
2020,02,24,07,39,6.40
2020,02,24,07,40,6.40
2020,02,24,07,41,4.80
2020,02,24,07,42,4.80
2020,02,24,07,43,6.40
2020,02,24,07,44,6.40
2020,02,24,07,45,6.40
2020,02,24,07,46,4.80
2020,02,24,07,47,8.10
2020,02,24,07,48,4.80
2020,02,24,07,49,6.40
2020,02,24,07,50,6.40
2020,02,24,07,51,8.10
2020,02,24,07,52,4.80
2020,02,24,07,53,8.10
2020,02,24,07,54,11.30
2020,02,24,07,55,8.10
2020,02,24,07,56,8.10
2020,02,24,07,57,4.80
2020,02,24,07,58,8.10
2020,02,24,07,59,4.80
2020,02,24,08,00,11.30
2020,02,24,08,01,6.40
2020,02,24,08,02,9.60
2020,02,24,08,03,4.80
2020,02,24,08,04,14.50
2020,02,24,08,05,6.40
2020,02,24,08,06,6.40
2020,02,24,08,07,9.60
2020,02,24,08,08,9.60
2020,02,24,08,09,11.30
2020,02,24,08,10,11.30
2020,02,24,08,11,16.10
2020,02,24,08,12,9.60
2020,02,24,08,13,9.60
2020,02,24,08,14,8.10
2020,02,24,08,15,11.30
2020,02,24,08,16,8.10
2020,02,24,08,17,4.80
2020,02,24,08,18,6.40
2020,02,24,08,19,6.40
2020,02,24,08,20,4.80
2020,02,24,08,21,4.80
2020,02,24,08,22,4.80
2020,02,24,08,23,4.80
2020,02,24,08,24,4.80
2020,02,24,08,26,6.40
2020,02,24,08,27,4.80
2020,02,24,08,28,4.80
2020,02,24,08,29,4.80
2020,02,24,08,30,6.40
2020,02,24,08,31,3.20
2020,02,24,08,32,3.20
2020,02,24,08,33,1.60
2020,02,24,08,34,3.20
2020,02,24,08,35,4.80
2020,02,24,08,36,3.20
2020,02,24,08,39,3.20
2020,02,24,08,40,3.20
2020,02,24,08,41,3.20
2020,02,24,08,42,4.80
2020,02,24,08,43,4.80
2020,02,24,08,44,3.20
2020,02,24,08,45,4.80
2020,02,24,08,46,3.20
2020,02,24,08,47,4.80
2020,02,24,08,48,4.80
2020,02,24,08,49,4.80
2020,02,24,08,50,3.20
2020,02,24,08,51,4.80
2020,02,24,08,52,3.20
2020,02,24,08,53,3.20
2020,02,24,08,54,6.40
2020,02,24,08,55,6.40
2020,02,24,08,56,4.80
2020,02,24,08,57,8.10
2020,02,24,08,58,4.80
2020,02,24,08,59,8.10
2020,02,24,09,00,8.10
2020,02,24,09,01,8.10
2020,02,24,09,02,8.10
2020,02,24,09,03,9.60
2020,02,24,09,04,16.10
2020,02,24,09,05,12.90
2020,02,24,09,06,8.10
2020,02,24,09,07,9.60
2020,02,24,09,08,6.40
2020,02,24,09,09,9.60
2020,02,24,09,10,6.40
2020,02,24,09,11,11.30
2020,02,24,09,12,6.40
2020,02,24,09,13,4.80
2020,02,24,09,14,11.30
2020,02,24,09,15,8.10
2020,02,24,09,16,11.30
2020,02,24,09,17,9.60
2020,02,24,09,18,8.10
2020,02,24,09,19,9.60
2020,02,24,09,20,4.80
2020,02,24,09,21,11.30
2020,02,24,09,22,8.10
2020,02,24,09,23,8.10
2020,02,24,09,24,9.60
2020,02,24,09,25,11.30
2020,02,24,09,26,6.40
2020,02,24,09,27,8.10
2020,02,24,09,28,6.40
2020,02,24,09,29,9.60
2020,02,24,09,30,3.20
2020,02,24,09,31,6.40
2020,02,24,09,32,8.10
2020,02,24,09,33,9.60
2020,02,24,09,34,6.40
2020,02,24,09,35,6.40
2020,02,24,09,36,6.40
2020,02,24,09,37,8.10
2020,02,24,09,38,8.10
2020,02,24,09,39,6.40
2020,02,24,09,40,8.10
2020,02,24,09,41,6.40
2020,02,24,09,42,4.80
2020,02,24,09,43,8.10
2020,02,24,09,44,8.10
2020,02,24,09,45,3.20
2020,02,24,09,46,6.40
2020,02,24,09,47,6.40
2020,02,24,09,48,3.20
2020,02,24,09,49,8.10
2020,02,24,09,50,4.80
2020,02,24,09,51,6.40
2020,02,24,09,52,8.10
2020,02,24,09,53,6.40
2020,02,24,09,54,8.10
2020,02,24,09,55,11.30
2020,02,24,09,56,9.60
2020,02,24,09,57,6.40
2020,02,24,09,58,6.40
2020,02,24,09,59,9.60
2020,02,24,10,00,12.90
2020,02,24,10,01,16.10
2020,02,24,10,02,14.50
2020,02,24,10,03,16.10
2020,02,24,10,04,14.50
2020,02,24,10,05,8.10
2020,02,24,10,06,6.40
2020,02,24,10,07,8.10
2020,02,24,10,08,9.60
2020,02,24,10,09,12.90
2020,02,24,10,10,11.30
2020,02,24,10,11,6.40
2020,02,24,10,12,8.10
2020,02,24,10,13,9.60
2020,02,24,10,14,9.60
2020,02,24,10,15,6.40
2020,02,24,10,16,9.60
2020,02,24,10,17,9.60
2020,02,24,10,18,8.10
2020,02,24,10,19,6.40
2020,02,24,10,20,9.60
2020,02,24,10,21,9.60
2020,02,24,10,22,8.10
2020,02,24,10,23,6.40
2020,02,24,10,24,11.30
2020,02,24,10,25,12.90
2020,02,24,10,26,11.30
2020,02,24,10,27,8.10
2020,02,24,10,28,9.60
2020,02,24,10,29,6.40
2020,02,24,10,30,8.10
2020,02,24,10,31,17.70
2020,02,24,10,32,12.90
2020,02,24,10,33,17.70
2020,02,24,10,34,14.50
2020,02,24,10,35,14.50
2020,02,24,10,36,11.30
2020,02,24,10,37,14.50
2020,02,24,10,38,14.50
2020,02,24,10,39,11.30
2020,02,24,10,40,16.10
2020,02,24,10,41,11.30
2020,02,24,10,42,14.50
2020,02,24,10,43,17.70
2020,02,24,10,44,8.10
2020,02,24,10,45,11.30
2020,02,24,10,46,16.10
2020,02,24,10,47,9.60
2020,02,24,10,48,9.60
2020,02,24,10,49,9.60
2020,02,24,10,50,9.60
2020,02,24,10,51,16.10
2020,02,24,10,52,11.30
2020,02,24,10,53,9.60
2020,02,24,10,54,8.10
2020,02,24,10,55,4.80
2020,02,24,10,56,9.60
2020,02,24,10,57,14.50
2020,02,24,10,58,9.60
2020,02,24,10,59,11.30
2020,02,24,11,00,11.30
2020,02,24,11,01,12.90
2020,02,24,11,02,9.60
2020,02,24,11,03,12.90
2020,02,24,11,04,8.10
2020,02,24,11,05,11.30
2020,02,24,11,06,9.60
2020,02,24,11,07,8.10
2020,02,24,11,08,19.30
2020,02,24,11,09,22.50
2020,02,24,11,10,11.30
2020,02,24,11,11,16.10
2020,02,24,11,12,16.10
2020,02,24,11,13,16.10
2020,02,24,11,14,17.70
2020,02,24,11,15,19.30
2020,02,24,11,16,20.90
2020,02,24,11,17,25.70
2020,02,24,11,18,19.30
2020,02,24,11,19,22.50
2020,02,24,11,20,19.30
2020,02,24,11,21,14.50
2020,02,24,11,22,14.50
2020,02,24,11,23,19.30
2020,02,24,11,24,17.70
2020,02,24,11,25,22.50
2020,02,24,11,26,22.50
2020,02,24,11,27,14.50
2020,02,24,11,28,14.50
2020,02,24,11,29,19.30
2020,02,24,11,30,22.50
2020,02,24,11,31,19.30
2020,02,24,11,32,27.40
2020,02,24,11,33,22.50
2020,02,24,11,34,25.70
2020,02,24,11,35,20.90
2020,02,24,11,36,20.90
2020,02,24,11,37,20.90
2020,02,24,11,38,16.10
2020,02,24,11,39,20.90
2020,02,24,11,40,20.90
2020,02,24,11,41,19.30
2020,02,24,11,42,12.90
2020,02,24,11,43,16.10
2020,02,24,11,44,22.50
2020,02,24,11,45,25.70
2020,02,24,11,46,19.30
2020,02,24,11,47,24.20
2020,02,24,11,48,22.50
2020,02,24,11,49,20.90
2020,02,24,11,50,22.50
2020,02,24,11,51,14.50
2020,02,24,11,52,20.90
2020,02,24,11,53,22.50
2020,02,24,11,54,20.90
2020,02,24,11,55,16.10
2020,02,24,11,56,22.50
2020,02,24,11,57,16.10
2020,02,24,11,58,17.70
2020,02,24,11,59,14.50
2020,02,24,12,00,8.10
2020,02,24,12,01,14.50
2020,02,24,12,02,17.70
2020,02,24,12,03,24.20
2020,02,24,12,04,17.70
2020,02,24,12,05,17.70
2020,02,24,12,06,17.70
2020,02,24,12,07,14.50
2020,02,24,12,08,17.70
2020,02,24,12,09,20.90
2020,02,24,12,10,14.50
2020,02,24,12,11,19.30
2020,02,24,12,12,20.90
2020,02,24,12,13,20.90
2020,02,24,12,14,20.90
2020,02,24,12,15,17.70
2020,02,24,12,16,11.30
2020,02,24,12,17,20.90
2020,02,24,12,18,17.70
2020,02,24,12,19,17.70
2020,02,24,12,20,14.50
2020,02,24,12,21,17.70
2020,02,24,12,22,17.70
2020,02,24,12,23,19.30
2020,02,24,12,24,19.30
2020,02,24,12,25,17.70
2020,02,24,12,26,14.50
2020,02,24,12,27,11.30
2020,02,24,12,28,9.60
2020,02,24,12,29,14.50
2020,02,24,12,30,17.70
2020,02,24,12,31,16.10
2020,02,24,12,32,14.50
2020,02,24,12,33,16.10
2020,02,24,12,34,17.70
2020,02,24,12,35,11.30
2020,02,24,12,36,16.10
2020,02,24,12,37,16.10
2020,02,24,12,38,12.90
2020,02,24,12,39,9.60
2020,02,24,12,40,14.50
2020,02,24,12,41,12.90
2020,02,24,12,42,9.60
2020,02,24,12,43,14.50
2020,02,24,12,44,14.50
2020,02,24,12,45,16.10
2020,02,24,12,46,14.50
2020,02,24,12,47,19.30
2020,02,24,12,48,12.90
2020,02,24,12,49,9.60
2020,02,24,12,50,16.10
2020,02,24,12,51,19.30
2020,02,24,12,52,17.70
2020,02,24,12,53,14.50
2020,02,24,12,54,11.30
2020,02,24,12,55,16.10
2020,02,24,12,56,16.10
2020,02,24,12,57,12.90
2020,02,24,12,58,16.10
2020,02,24,12,59,14.50
2020,02,24,13,00,17.70
2020,02,24,13,01,14.50
2020,02,24,13,02,20.90
2020,02,24,13,03,24.20
2020,02,24,13,04,19.30
2020,02,24,13,05,11.30
2020,02,24,13,06,24.20
2020,02,24,13,07,9.60
2020,02,24,13,08,22.50
2020,02,24,13,09,20.90
2020,02,24,13,10,16.10
2020,02,24,13,11,19.30
2020,02,24,13,12,17.70
2020,02,24,13,13,17.70
2020,02,24,13,14,17.70
2020,02,24,13,15,19.30
2020,02,24,13,16,12.90
2020,02,24,13,17,11.30
2020,02,24,13,18,16.10
2020,02,24,13,19,11.30
2020,02,24,13,20,12.90
2020,02,24,13,21,17.70
2020,02,24,13,22,12.90
2020,02,24,13,23,20.90
2020,02,24,13,24,11.30
2020,02,24,13,25,11.30
2020,02,24,13,26,17.70
2020,02,24,13,27,11.30
2020,02,24,13,28,19.30
2020,02,24,13,29,22.50
2020,02,24,13,30,9.60
2020,02,24,13,31,14.50
2020,02,24,13,32,14.50
2020,02,24,13,33,17.70
2020,02,24,13,34,24.20
2020,02,24,13,35,22.50
2020,02,24,13,36,11.30
2020,02,24,13,37,16.10
2020,02,24,13,38,16.10
2020,02,24,13,39,17.70
2020,02,24,13,40,17.70
2020,02,24,13,41,19.30
2020,02,24,13,42,12.90
2020,02,24,13,43,6.40
2020,02,24,13,44,9.60
2020,02,24,13,45,17.70
2020,02,24,13,46,16.10
2020,02,24,13,47,9.60
2020,02,24,13,48,16.10
2020,02,24,13,49,9.60
2020,02,24,13,50,9.60
2020,02,24,13,51,17.70
2020,02,24,13,52,14.50
2020,02,24,13,53,20.90
2020,02,24,13,54,17.70
2020,02,24,13,55,6.40
2020,02,24,13,56,6.40
2020,02,24,13,57,8.10
2020,02,24,13,58,8.10
2020,02,24,13,59,9.60
2020,02,24,14,00,8.10
2020,02,24,14,01,8.10
2020,02,24,14,02,6.40
2020,02,24,14,03,9.60
2020,02,24,14,04,6.40
2020,02,24,14,05,8.10
2020,02,24,14,06,6.40
2020,02,24,14,07,4.80
2020,02,24,14,08,9.60
2020,02,24,14,09,6.40
2020,02,24,14,10,4.80
2020,02,24,14,11,6.40
2020,02,24,14,12,6.40
2020,02,24,14,13,3.20
2020,02,24,14,14,6.40
2020,02,24,14,15,6.40
2020,02,24,14,16,4.80
2020,02,24,14,17,4.80
2020,02,24,14,18,4.80
2020,02,24,14,19,6.40
2020,02,24,14,20,8.10
2020,02,24,14,21,3.20
2020,02,24,14,22,3.20
2020,02,24,14,23,9.60
2020,02,24,14,24,8.10
2020,02,24,14,25,6.40
2020,02,24,14,26,4.80
2020,02,24,14,27,3.20
2020,02,24,14,28,4.80
2020,02,24,14,29,6.40
2020,02,24,14,30,3.20
2020,02,24,14,36,6.40
2020,02,24,14,37,8.10
2020,02,24,14,38,8.10
2020,02,24,14,39,11.30
2020,02,24,14,40,9.60
2020,02,24,14,41,8.10
2020,02,24,14,42,9.60
2020,02,24,14,43,8.10
2020,02,24,14,44,8.10
2020,02,24,14,45,9.60
2020,02,24,14,46,6.40
2020,02,24,14,47,3.20
2020,02,24,14,48,3.20
2020,02,24,14,49,6.40
2020,02,24,14,50,4.80
2020,02,24,14,51,6.40
2020,02,24,14,52,6.40
2020,02,24,14,53,6.40
2020,02,24,14,54,6.40
2020,02,24,14,55,11.30
2020,02,24,14,56,16.10
2020,02,24,14,57,11.30
2020,02,24,14,58,11.30
2020,02,24,14,59,8.10
2020,02,24,15,01,1.60
2020,02,24,15,04,3.20
2020,02,24,15,05,4.80
2020,02,24,15,06,3.20
2020,02,24,15,07,4.80
2020,02,24,15,08,6.40
2020,02,24,15,09,6.40
2020,02,24,15,10,4.80
2020,02,24,15,11,3.20
2020,02,24,15,12,3.20
2020,02,24,15,13,4.80
2020,02,24,15,14,1.60
2020,02,24,15,15,1.60
2020,02,24,15,16,1.60
2020,02,24,15,17,4.80
2020,02,24,15,18,6.40
2020,02,24,15,19,3.20
2020,02,24,15,22,4.80
2020,02,24,15,23,3.20
2020,02,24,15,24,6.40
2020,02,24,15,25,6.40
2020,02,24,15,26,1.60
2020,02,24,15,27,1.60
2020,02,24,15,28,1.60
2020,02,24,15,29,4.80
2020,02,24,15,30,6.40
2020,02,24,15,31,6.40
2020,02,24,15,32,6.40
2020,02,24,15,33,9.60
2020,02,24,15,34,6.40
2020,02,24,15,35,6.40
2020,02,24,15,36,4.80
2020,02,24,15,37,4.80
2020,02,24,15,38,6.40
2020,02,24,15,39,8.10
2020,02,24,15,40,9.60
2020,02,24,15,41,8.10
2020,02,24,15,42,4.80
2020,02,24,15,43,4.80
2020,02,24,15,46,9.60
2020,02,24,15,47,6.40
2020,02,24,15,48,8.10
2020,02,24,15,49,6.40
2020,02,24,15,50,6.40
2020,02,24,15,51,6.40
2020,02,24,15,52,3.20
2020,02,24,15,53,4.80
2020,02,24,15,54,4.80
2020,02,24,15,55,1.60
2020,02,24,15,56,4.80
2020,02,24,15,57,6.40
2020,02,24,15,58,4.80
2020,02,24,15,59,9.60
2020,02,24,16,00,6.40
2020,02,24,16,01,14.50
2020,02,24,16,02,14.50
2020,02,24,16,03,9.60
2020,02,24,16,04,3.20
2020,02,24,16,05,8.10
2020,02,24,16,06,8.10
2020,02,24,16,07,6.40
2020,02,24,16,08,11.30
2020,02,24,16,09,9.60
2020,02,24,16,10,6.40
2020,02,24,16,12,6.40
2020,02,24,16,13,1.60
2020,02,24,16,14,4.80
2020,02,24,16,15,1.60
2020,02,24,16,16,1.60
2020,02,24,16,17,6.40
2020,02,24,16,18,4.80
2020,02,24,16,19,8.10
2020,02,24,16,20,4.80
2020,02,24,16,21,4.80
2020,02,24,16,22,4.80
2020,02,24,16,23,4.80
2020,02,24,16,24,8.10
2020,02,24,16,25,4.80
2020,02,24,16,26,4.80
2020,02,24,16,27,3.20
2020,02,24,16,28,6.40
2020,02,24,16,29,6.40
2020,02,24,16,30,8.10
2020,02,24,16,31,9.60
2020,02,24,16,32,8.10
2020,02,24,16,33,6.40
2020,02,24,16,34,8.10
2020,02,24,16,35,6.40
2020,02,24,16,36,3.20
2020,02,24,16,37,3.20
2020,02,24,16,38,4.80
2020,02,24,16,39,6.40
2020,02,24,16,40,8.10
2020,02,24,16,41,6.40
2020,02,24,16,42,6.40
2020,02,24,16,43,4.80
2020,02,24,16,44,4.80
2020,02,24,16,45,3.20
2020,02,24,16,46,9.60
2020,02,24,16,47,8.10
2020,02,24,16,48,3.20
2020,02,24,16,49,4.80
2020,02,24,16,50,3.20
2020,02,24,16,51,3.20
2020,02,24,16,52,4.80
2020,02,24,16,53,4.80
2020,02,24,16,54,6.40
2020,02,24,16,55,8.10
2020,02,24,16,56,4.80
2020,02,24,16,57,4.80
2020,02,24,16,58,4.80
2020,02,24,16,59,4.80
2020,02,24,17,00,3.20
2020,02,24,17,01,3.20
2020,02,24,17,02,8.10
2020,02,24,17,03,6.40
2020,02,24,17,04,3.20
2020,02,24,17,05,3.20
2020,02,24,17,06,4.80
2020,02,24,17,07,6.40
2020,02,24,17,08,6.40
2020,02,24,17,09,4.80
2020,02,24,17,10,4.80
2020,02,24,17,11,6.40
2020,02,24,17,12,6.40
2020,02,24,17,13,4.80
2020,02,24,17,14,6.40
2020,02,24,17,15,4.80
2020,02,24,17,16,3.20
2020,02,24,17,17,4.80
2020,02,24,17,18,6.40
2020,02,24,17,19,8.10
2020,02,24,17,20,6.40
2020,02,24,17,21,4.80
2020,02,24,17,22,6.40
2020,02,24,17,23,9.60
2020,02,24,17,24,4.80
2020,02,24,17,25,3.20
2020,02,24,17,26,3.20
2020,02,24,17,28,6.40
2020,02,24,17,29,9.60
2020,02,24,17,30,11.30
2020,02,24,17,31,4.80
2020,02,24,17,32,8.10
2020,02,24,17,33,11.30
2020,02,24,17,34,4.80
2020,02,24,17,35,9.60
2020,02,24,17,36,9.60
2020,02,24,17,37,9.60
2020,02,24,17,38,9.60
2020,02,24,17,39,6.40
2020,02,24,17,40,8.10
2020,02,24,17,41,6.40
2020,02,24,17,42,6.40
2020,02,24,17,43,1.60
2020,02,24,17,45,3.20
2020,02,24,17,46,4.80
2020,02,24,17,47,4.80
2020,02,24,17,48,3.20
2020,02,24,17,49,6.40
2020,02,24,17,50,8.10
2020,02,24,17,51,8.10
2020,02,24,17,52,3.20
2020,02,24,17,53,6.40
2020,02,24,17,54,8.10
2020,02,24,17,55,9.60
2020,02,24,17,56,8.10
2020,02,24,17,57,8.10
2020,02,24,17,58,8.10